GW7640 Weather Reports


Display with metric or nautical units.
time (UTC)temp
F
wind
direction
speed
MPH
gust
MPH
rain 1hr
in
rain 24hr
in
rain mn
in
humidity
%
barometer
mb
20260906143958 78 195 2.0 3.0 0.00 0.00 0.00 84 1018.2
20260906143453 77 229 2.0 3.0 0.00 0.00 0.00 85 1018.3
20260906142949 77 16 2.0 3.0 0.00 0.00 0.00 85 1018.4
20260906142449 77 195 1.0 1.0 0.00 0.00 0.00 85 1018.3
20260906141944 77 131 1.0 2.0 0.00 0.00 0.00 85 1018.5
20260906141443 77 153 2.0 2.0 0.00 0.00 0.00 85 1018.2
20260906140938 77 342 3.0 4.0 0.00 0.00 0.00 85 1018.3
20260906140433 78 356 3.0 3.0 0.00 0.00 0.00 83 1018.4
20260906135931 77 158 2.0 2.0 0.00 0.00 0.00 84 1018.3
20260906135430 77 83 2.0 2.0 0.00 0.00 0.00 85 1018.2
20260906134926 77 203 1.0 2.0 0.00 0.00 0.00 85 1018.3
20260906134421 77 204 2.0 3.0 0.00 0.00 0.00 85 1018.0
20260906133915 77 354 5.0 6.0 0.00 0.00 0.00 85 1018.2
20260906133411 77 195 2.0 2.0 0.00 0.00 0.00 85 1018.1
20260906132907 76 261 2.0 2.0 0.00 0.00 0.00 87 1018.1
20260906132402 76 1 2.0 3.0 0.00 0.00 0.00 87 1017.9
20260906131857 75 202 3.0 3.0 0.00 0.00 0.00 87 1018.2
20260906131353 75 228 2.0 3.0 0.00 0.00 0.00 88 1018.3
20260906130849 75 171 1.0 1.0 0.00 0.00 0.00 89 1018.1
20260906130348 74 212 1.0 1.0 0.00 0.00 0.00 89 1018.2
20260906125847 74 209 2.0 2.0 0.00 0.00 0.00 89 1018.2
20260906125344 74 240 3.0 3.0 0.00 0.00 0.00 89 1018.2
20260906124839 74 33 3.0 3.0 0.00 0.00 0.00 89 1018.3
20260906124335 74 260 3.0 3.0 0.00 0.00 0.00 89 1018.1
20260906123834 74 195 2.0 2.0 0.00 0.00 0.00 89 1018.0
20260906123329 74 112 1.0 2.0 0.00 0.00 0.00 89 1017.9
20260906122829 74 80 2.0 2.0 0.00 0.00 0.00 89 1017.8
20260906122324 74 192 0.0 1.0 0.00 0.00 0.00 89 1017.9
20260906121821 74 130 1.0 2.0 0.00 0.00 0.00 90 1017.7
20260906121317 74 301 2.0 3.0 0.00 0.00 0.00 90 1017.7
20260906120813 74 308 2.0 3.0 0.00 0.00 0.00 90 1017.9
20260906120308 74 210 1.0 2.0 0.00 0.00 0.00 90 1017.7
20260906115804 74 260 2.0 3.0 0.00 0.00 0.00 90 1017.5
20260906115259 73 234 2.0 2.0 0.00 0.00 0.00 90 1017.3
20260906114759 73 196 0.0 0.0 0.00 0.00 0.00 90 1017.4
20260906114254 74 191 1.0 1.0 0.00 0.00 0.00 90 1017.3
20260906113749 74 162 2.0 2.0 0.00 0.00 0.00 90 1017.2
20260906113249 74 200 1.0 2.0 0.00 0.00 0.00 90 1017.3
20260906112748 74 214 1.0 1.0 0.00 0.00 0.00 90 1017.2
20260906112245 74 231 1.0 1.0 0.00 0.00 0.00 90 1017.3
20260906111745 74 197 1.0 1.0 0.00 0.00 0.00 90 1017.1
20260906111244 74 210 1.0 1.0 0.00 0.00 0.00 90 1017.3
20260906110739 74 179 0.0 1.0 0.00 0.00 0.00 90 1017.4
20260906110235 74 163 0.0 1.0 0.00 0.00 0.00 89 1017.3
20260906105733 74 195 0.0 1.0 0.00 0.00 0.00 89 1017.2
20260906105230 74 178 0.0 0.0 0.00 0.00 0.00 89 1017.1
20260906104725 74 193 0.0 1.0 0.00 0.00 0.00 89 1017.1
20260906104224 75 194 1.0 1.0 0.00 0.00 0.00 89 1017.1
20260906103722 75 168 2.0 2.0 0.00 0.00 0.00 89 1017.0
20260906103216 75 165 1.0 1.0 0.00 0.00 0.00 89 1016.9
20260906102712 75 154 0.0 1.0 0.00 0.00 0.00 88 1016.9
20260906102211 75 183 1.0 1.0 0.00 0.00 0.00 88 1016.7
20260906101706 75 191 0.0 1.0 0.00 0.00 0.00 88 1016.6
20260906101201 75 193 1.0 1.0 0.00 0.00 0.00 88 1016.9
20260906100656 75 198 0.0 1.0 0.00 0.00 0.00 88 1016.8
20260906100156 75 168 0.0 0.0 0.00 0.00 0.00 88 1016.7
20260906095651 76 172 1.0 1.0 0.00 0.00 0.00 89 1016.6
20260906095147 76 191 0.0 0.0 0.00 0.00 0.00 88 1016.6
20260906094645 76 248 0.0 1.0 0.00 0.00 0.00 88 1016.6
20260906094141 76 153 1.0 2.0 0.00 0.00 0.00 88 1016.3
20260906093637 76 160 0.0 0.0 0.00 0.00 0.00 88 1016.6
20260906093137 76 201 1.0 1.0 0.00 0.00 0.00 88 1016.5
20260906092632 77 158 2.0 2.0 0.00 0.00 0.00 88 1016.5
20260906092133 77 62 1.0 2.0 0.00 0.00 0.00 88 1016.5
20260906091629 77 194 0.0 1.0 0.00 0.00 0.00 88 1016.5
20260906091125 77 173 0.0 1.0 0.00 0.00 0.00 88 1016.3
20260906090620 77 139 2.0 3.0 0.00 0.00 0.00 88 1016.4
20260906090120 77 169 0.0 1.0 0.00 0.00 0.00 88 1016.1
20260906085620 77 178 1.0 1.0 0.00 0.00 0.00 88 1016.3
20260906085114 77 195 0.0 0.0 0.00 0.00 0.00 88 1016.4
20260906084609 77 159 1.0 1.0 0.00 0.00 0.00 88 1016.3
20260906084107 78 189 0.0 0.0 0.00 0.00 0.00 88 1016.3
20260906083603 78 154 0.0 0.0 0.00 0.00 0.00 88 1016.1
20260906083103 78 321 2.0 2.0 0.00 0.00 0.00 88 1016.2
20260906082558 78 358 2.0 2.0 0.00 0.00 0.00 88 1016.0
20260906082054 78 204 1.0 2.0 0.00 0.00 0.00 88 1016.1
20260906081550 78 169 0.0 1.0 0.00 0.00 0.00 88 1016.0
20260906081045 78 184 1.0 1.0 0.00 0.00 0.00 88 1015.9
20260906080542 79 194 0.0 0.0 0.00 0.00 0.00 88 1016.0
20260906080037 79 188 1.0 2.0 0.00 0.00 0.00 88 1015.9
20260906075537 79 145 1.0 2.0 0.00 0.00 0.00 88 1016.1
20260906075032 79 185 0.0 0.0 0.00 0.00 0.00 88 1015.9
20260906074527 79 189 1.0 1.0 0.00 0.00 0.00 88 1015.9
20260906074025 79 189 0.0 0.0 0.00 0.00 0.00 88 1016.2
20260906073520 79 198 0.0 1.0 0.00 0.00 0.00 88 1016.2
20260906073017 79 108 2.0 2.0 0.00 0.00 0.00 88 1016.2
20260906072511 79 220 1.0 2.0 0.00 0.00 0.00 88 1016.4
20260906072008 80 151 2.0 2.0 0.00 0.00 0.00 88 1016.1
20260906071503 80 200 1.0 1.0 0.00 0.00 0.00 88 1016.3
20260906070958 80 190 1.0 2.0 0.00 0.00 0.00 88 1016.2
20260906070454 80 124 1.0 2.0 0.00 0.00 0.00 87 1016.2
20260906065950 80 182 1.0 2.0 0.00 0.00 0.00 87 1016.2
20260906065449 80 211 2.0 2.0 0.00 0.00 0.00 87 1016.1
20260906064945 81 197 1.0 1.0 0.00 0.00 0.00 86 1016.0
20260906064442 81 170 2.0 2.0 0.00 0.00 0.00 86 1016.1
20260906063942 81 197 1.0 1.0 0.00 0.00 0.00 85 1016.1
20260906063438 81 180 1.0 2.0 0.00 0.00 0.00 85 1016.1
20260906062937 81 199 0.0 0.0 0.00 0.00 0.00 84 1016.0
20260906062433 82 200 0.0 0.0 0.00 0.00 0.00 84 1016.2
20260906061928 82 188 1.0 1.0 0.00 0.00 0.00 83 1015.9
20260906061424 82 196 0.0 0.0 0.00 0.00 0.00 83 1016.0
20260906060924 82 177 0.0 0.0 0.00 0.00 0.00 82 1016.2
20260906060421 83 203 1.0 1.0 0.00 0.00 0.00 81 1016.2
20260906055917 83 184 0.0 1.0 0.00 0.00 0.00 81 1016.1
20260906055413 83 178 0.0 1.0 0.00 0.00 0.00 80 1016.2
20260906054908 83 145 2.0 2.0 0.00 0.00 0.00 80 1016.1
20260906054402 84 190 0.0 0.0 0.00 0.00 0.00 79 1016.1
20260906053859 84 195 0.0 0.0 0.00 0.00 0.00 79 1016.0
20260906053354 84 179 0.0 0.0 0.00 0.00 0.00 79 1016.0
20260906052850 84 193 0.0 0.0 0.00 0.00 0.00 79 1016.1
20260906052346 84 194 0.0 0.0 0.00 0.00 0.00 78 1015.9
20260906051843 84 199 0.0 0.0 0.00 0.00 0.00 78 1015.9
20260906051342 84 201 0.0 0.0 0.00 0.00 0.00 77 1015.9
20260906050838 85 195 1.0 1.0 0.00 0.00 0.00 77 1016.0
20260906050333 85 237 1.0 1.0 0.00 0.00 0.00 77 1016.1
20260906045832 85 201 0.0 0.0 0.00 0.00 0.00 76 1016.0
20260906045326 84 198 0.0 1.0 0.00 0.00 0.00 77 1016.1
20260906044823 84 166 0.0 0.0 0.00 0.00 0.00 77 1015.8
20260906044323 84 202 0.0 0.0 0.00 0.00 0.00 77 1015.7
20260906043819 84 199 0.0 0.0 0.00 0.00 0.00 78 1016.0
20260906043315 84 195 0.0 0.0 0.00 0.00 0.00 77 1015.7
20260906042814 84 194 0.0 0.0 0.00 0.00 0.00 77 1015.7
20260906042313 84 198 0.0 0.0 0.00 0.00 0.00 77 1015.7
20260906041809 84 195 0.0 0.0 0.00 0.00 0.00 76 1015.6
20260906041304 84 192 0.0 0.0 0.00 0.00 0.00 76 1015.5
20260906040759 84 195 0.0 0.0 0.00 0.00 0.00 76 1015.6
20260906040254 84 194 0.0 0.0 0.00 0.00 0.00 75 1015.4
20260906035750 84 192 0.0 0.0 0.00 0.00 0.00 75 1015.4
20260906035246 85 194 0.0 0.0 0.00 0.00 0.00 74 1015.4
20260906034745 85 194 0.0 0.0 0.00 0.00 0.00 73 1015.5
20260906034240 85 197 0.0 0.0 0.00 0.00 0.00 74 1015.5
20260906033736 85 194 0.0 0.0 0.00 0.00 0.00 73 1015.6
20260906033235 86 193 0.0 0.0 0.00 0.00 0.00 72 1015.6
20260906032732 86 198 0.0 0.0 0.00 0.00 0.00 72 1015.5
20260906032232 86 198 0.0 0.0 0.00 0.00 0.00 72 1015.5
20260906031727 86 199 0.0 0.0 0.00 0.00 0.00 72 1015.5
20260906031223 86 197 0.0 0.0 0.00 0.00 0.00 71 1015.4
20260906030723 86 195 0.0 0.0 0.00 0.00 0.00 70 1015.1
20260906030218 86 195 0.0 0.0 0.00 0.00 0.00 69 1015.1
20260906025717 87 199 0.0 0.0 0.00 0.00 0.00 69 1015.1
20260906025212 86 191 1.0 1.0 0.00 0.00 0.00 70 1015.1
20260906024711 86 208 0.0 0.0 0.00 0.00 0.00 70 1015.0
20260906024210 87 199 0.0 0.0 0.00 0.00 0.00 69 1015.0
20260906023707 87 197 0.0 0.0 0.00 0.00 0.00 68 1014.9
20260906023207 87 207 0.0 0.0 0.00 0.00 0.00 68 1014.9
20260906022702 87 185 0.0 0.0 0.00 0.00 0.00 68 1015.0
20260906022157 87 181 1.0 1.0 0.00 0.00 0.00 68 1014.9
20260906021654 87 212 1.0 1.0 0.00 0.00 0.00 67 1014.9
20260906021152 87 200 1.0 1.0 0.00 0.00 0.00 68 1014.7
20260906020647 88 198 0.0 0.0 0.00 0.00 0.00 68 1014.5
20260906020142 88 181 0.0 0.0 0.00 0.00 0.00 67 1014.5
20260906015642 88 219 0.0 0.0 0.00 0.00 0.00 68 1014.3
20260906015140 88 197 0.0 0.0 0.00 0.00 0.00 67 1014.3
20260906014635 88 183 0.0 0.0 0.00 0.00 0.00 67 1014.5
20260906014131 88 151 1.0 1.0 0.00 0.00 0.00 67 1014.1
20260906013626 89 208 0.0 0.0 0.00 0.00 0.00 66 1014.1
20260906013122 89 168 1.0 1.0 0.00 0.00 0.00 66 1014.0
20260906012616 89 259 2.0 2.0 0.00 0.00 0.00 66 1014.0
20260906012116 89 207 2.0 2.0 0.00 0.00 0.00 65 1013.8
20260906011613 89 201 1.0 2.0 0.00 0.00 0.00 65 1013.9
20260906011113 89 186 1.0 1.0 0.00 0.00 0.00 65 1013.9
20260906010608 89 206 1.0 1.0 0.00 0.00 0.00 65 1013.9
20260906010104 90 193 1.0 1.0 0.00 0.00 0.00 65 1013.9
20260906005604 90 194 1.0 1.0 0.00 0.00 0.00 64 1013.8
20260906005103 90 160 0.0 0.0 0.00 0.00 0.00 64 1013.9
20260906004602 90 211 1.0 1.0 0.00 0.00 0.00 63 1013.8
20260906004057 90 194 1.0 1.0 0.00 0.00 0.00 63 1013.7
20260906003552 91 202 0.0 0.0 0.00 0.00 0.00 62 1013.7
20260906003048 91 166 1.0 2.0 0.00 0.00 0.00 61 1013.6
20260906002548 91 247 2.0 2.0 0.00 0.00 0.00 61 1013.9
20260906002043 91 188 1.0 1.0 0.00 0.00 0.00 61 1013.8
20260906001539 92 97 2.0 2.0 0.00 0.00 0.00 59 1013.7
20260906001039 92 233 1.0 2.0 0.00 0.00 0.00 58 1013.9
20260906000535 92 95 2.0 3.0 0.00 0.00 0.00 58 1013.9
20260906000030 93 245 2.0 2.0 0.00 0.00 0.00 56 1013.9
20260905235529 93 226 3.0 3.0 0.00 0.00 0.00 55 1013.9
20260905235025 93 247 4.0 4.0 0.00 0.00 0.00 54 1013.8
20260905234521 94 158 1.0 2.0 0.00 0.00 0.00 54 1013.9
20260905234021 94 115 2.0 2.0 0.00 0.00 0.00 53 1013.8
20260905233515 94 192 0.0 1.0 0.00 0.00 0.00 52 1013.8
20260905233015 95 204 1.0 2.0 0.00 0.00 0.00 52 1013.7
20260905232510 95 259 3.0 3.0 0.00 0.00 0.00 51 1013.9
20260905232006 95 332 4.0 4.0 0.00 0.00 0.00 51 1013.7
20260905231501 96 183 3.0 4.0 0.00 0.00 0.00 51 1013.9
20260905230958 96 91 5.0 7.0 0.00 0.00 0.00 50 1014.0
20260905230456 96 244 2.0 2.0 0.00 0.00 0.00 50 1013.9
20260905225954 96 161 2.0 3.0 0.00 0.00 0.00 50 1014.1
20260905225449 96 192 1.0 1.0 0.00 0.00 0.00 49 1013.9
20260905224945 96 206 2.0 3.0 0.00 0.00 0.00 48 1013.6
20260905224440 96 201 2.0 2.0 0.00 0.00 0.00 48 1013.7
20260905223939 96 181 1.0 1.0 0.00 0.00 0.00 49 1013.5
20260905223437 96 284 3.0 3.0 0.00 0.00 0.00 48 1013.7
20260905222932 96 33 1.0 2.0 0.00 0.00 0.00 49 1013.5
20260905222432 96 104 2.0 2.0 0.00 0.00 0.00 48 1013.7
20260905221927 97 60 1.0 2.0 0.00 0.00 0.00 48 1013.8
20260905221424 97 53 3.0 3.0 0.00 0.00 0.00 47 1013.8
20260905220920 97 289 4.0 4.0 0.00 0.00 0.00 47 1013.7
20260905220416 98 240 4.0 7.0 0.00 0.00 0.00 46 1013.7
20260905215915 99 328 4.0 6.0 0.00 0.00 0.00 45 1013.7
20260905215410 99 114 4.0 4.0 0.00 0.00 0.00 44 1013.7
20260905214907 100 222 3.0 4.0 0.00 0.00 0.00 44 1013.9
20260905214402 99 263 2.0 4.0 0.00 0.00 0.00 45 1013.7
20260905213856 99 74 4.0 6.0 0.00 0.00 0.00 44 1013.7
20260905213353 99 161 3.0 4.0 0.00 0.00 0.00 45 1013.7
20260905212853 99 240 5.0 7.0 0.00 0.00 0.00 45 1013.7
20260905212348 99 8 5.0 8.0 0.00 0.00 0.00 44 1013.5
20260905211847 100 315 8.0 9.0 0.00 0.00 0.00 45 1013.7
20260905211343 100 64 4.0 4.0 0.00 0.00 0.00 45 1013.6
20260905210840 100 15 4.0 6.0 0.00 0.00 0.00 44 1013.7
20260905210340 100 272 2.0 3.0 0.00 0.00 0.00 45 1013.9
20260905205838 100 257 4.0 6.0 0.00 0.00 0.00 43 1014.0
20260905205333 99 269 6.0 7.0 0.00 0.00 0.00 45 1014.0
20260905204832 99 210 2.0 3.0 0.00 0.00 0.00 46 1014.2
20260905204329 99 260 3.0 3.0 0.00 0.00 0.00 48 1014.1
20260905203827 99 91 5.0 6.0 0.00 0.00 0.00 47 1014.3
20260905203323 98 165 2.0 2.0 0.00 0.00 0.00 48 1014.2
20260905202819 98 80 2.0 2.0 0.00 0.00 0.00 48 1014.1
20260905202313 99 340 4.0 4.0 0.00 0.00 0.00 47 1014.0
20260905201809 99 55 3.0 4.0 0.00 0.00 0.00 47 1014.3
20260905201304 98 18 5.0 8.0 0.00 0.00 0.00 48 1014.2
20260905200759 98 248 3.0 3.0 0.00 0.00 0.00 49 1014.2
20260905200255 95 213 2.0 3.0 0.00 0.00 0.00 54 1014.4
20260905195752 94 135 1.0 2.0 0.00 0.00 0.00 56 1014.3
20260905195248 96 87 4.0 4.0 0.00 0.00 0.00 57 1014.4
20260905194743 100 340 5.0 6.0 0.00 0.00 0.00 48 1014.3
20260905194243 101 312 7.0 9.0 0.00 0.00 0.00 45 1014.2
20260905193742 103 311 2.0 3.0 0.00 0.00 0.00 45 1014.4
20260905193237 104 45 5.0 6.0 0.00 0.00 0.00 41 1014.4
20260905192733 104 210 2.0 2.0 0.00 0.00 0.00 40 1014.4
20260905192229 103 288 4.0 7.0 0.00 0.00 0.00 40 1014.6
20260905191728 102 342 6.0 8.0 0.00 0.00 0.00 40 1014.6
20260905191226 103 3 5.0 7.0 0.00 0.00 0.00 40 1014.6
20260905190726 103 330 4.0 6.0 0.00 0.00 0.00 39 1014.6
20260905190224 102 41 5.0 6.0 0.00 0.00 0.00 40 1014.7
20260905185724 101 308 4.0 4.0 0.00 0.00 0.00 43 1014.7
20260905185219 102 95 7.0 9.0 0.00 0.00 0.00 40 1014.9
20260905184713 102 65 4.0 7.0 0.00 0.00 0.00 42 1015.0
20260905184212 102 195 1.0 1.0 0.00 0.00 0.00 41 1014.8
20260905183712 102 230 2.0 3.0 0.00 0.00 0.00 41 1014.9
20260905183207 102 232 2.0 2.0 0.00 0.00 0.00 42 1015.1
20260905182707 102 189 2.0 2.0 0.00 0.00 0.00 41 1015.0
20260905182206 102 226 3.0 4.0 0.00 0.00 0.00 42 1015.0
20260905181702 101 316 6.0 7.0 0.00 0.00 0.00 41 1015.1
20260905181201 101 228 2.0 3.0 0.00 0.00 0.00 43 1015.2
20260905180655 101 182 1.0 2.0 0.00 0.00 0.00 43 1015.2
20260905180151 101 310 4.0 6.0 0.00 0.00 0.00 44 1015.3
20260905175650 100 195 4.0 6.0 0.00 0.00 0.00 47 1015.6
20260905175145 102 31 3.0 4.0 0.00 0.00 0.00 46 1015.5
20260905174641 100 190 2.0 2.0 0.00 0.00 0.00 45 1015.5
20260905174136 100 243 2.0 3.0 0.00 0.00 0.00 46 1015.5
20260905173632 99 15 3.0 4.0 0.00 0.00 0.00 49 1015.5
20260905173128 98 198 0.0 0.0 0.00 0.00 0.00 48 1015.6
20260905172626 99 358 4.0 6.0 0.00 0.00 0.00 49 1015.5
20260905172121 98 135 2.0 2.0 0.00 0.00 0.00 50 1015.6
20260905171618 98 49 1.0 3.0 0.00 0.00 0.00 49 1015.7
20260905171114 98 204 1.0 2.0 0.00 0.00 0.00 50 1015.8
20260905170610 97 206 2.0 2.0 0.00 0.00 0.00 50 1015.9
20260905170106 97 168 2.0 2.0 0.00 0.00 0.00 52 1016.1
20260905165605 97 90 4.0 6.0 0.00 0.00 0.00 50 1016.1
20260905165101 97 192 0.0 1.0 0.00 0.00 0.00 54 1016.2
20260905164555 97 293 4.0 4.0 0.00 0.00 0.00 52 1016.2
20260905164049 97 275 2.0 3.0 0.00 0.00 0.00 54 1016.2
20260905163546 98 236 0.0 0.0 0.00 0.00 0.00 50 1016.3
20260905163042 96 193 2.0 2.0 0.00 0.00 0.00 53 1016.4
20260905162538 97 10 4.0 4.0 0.00 0.00 0.00 51 1016.3
20260905162037 96 63 4.0 4.0 0.00 0.00 0.00 51 1016.5
20260905161532 97 95 2.0 2.0 0.00 0.00 0.00 51 1016.3
20260905161030 97 194 0.0 0.0 0.00 0.00 0.00 51 1016.4
20260905160528 95 247 2.0 2.0 0.00 0.00 0.00 52 1016.2
20260905160028 95 257 4.0 4.0 0.00 0.00 0.00 52 1016.5
20260905155528 95 134 2.0 2.0 0.00 0.00 0.00 54 1016.5
20260905155026 94 251 1.0 1.0 0.00 0.00 0.00 55 1016.2
20260905154522 94 81 2.0 3.0 0.00 0.00 0.00 54 1016.3
20260905154018 94 331 4.0 4.0 0.00 0.00 0.00 52 1016.2
20260905153514 94 197 0.0 1.0 0.00 0.00 0.00 54 1016.3
20260905153013 95 222 2.0 2.0 0.00 0.00 0.00 56 1016.4
20260905152513 94 196 2.0 3.0 0.00 0.00 0.00 54 1016.3
20260905152008 93 265 1.0 2.0 0.00 0.00 0.00 57 1016.5
20260905151504 95 198 1.0 1.0 0.00 0.00 0.00 55 1016.3
20260905150959 94 289 2.0 3.0 0.00 0.00 0.00 56 1016.4
20260905150453 92 198 0.0 0.0 0.00 0.00 0.00 59 1016.2
20260905145950 93 197 0.0 1.0 0.00 0.00 0.00 58 1016.2
20260905145445 91 195 1.0 2.0 0.00 0.00 0.00 58 1016.3
20260905144944 91 167 3.0 3.0 0.00 0.00 0.00 59 1016.1
20260905144440 91 150 4.0 4.0 0.00 0.00 0.00 60 1016.2